Meteo pe oră la Bolshoe Aksenovo

Astăzi, 9 Mai, Duminică

Timp Temperatura Precipitaţii Vânt Presiune Umiditate
00:00 +3°C° 0.3 mm 5 m/s 741 mmHg 94%
01:00 +3°C° 0.3 mm 5 m/s 741 mmHg 94%
02:00 +2°C° 0.3 mm 6 m/s 742 mmHg 94%
03:00 +2°C° 0.3 mm 6 m/s 743 mmHg 94%
04:00 +1°C° 0.3 mm 5 m/s 743 mmHg 95%
05:00 +1°C° 0.3 mm 5 m/s 744 mmHg 95%
06:00 +1°C° 0.2 mm 5 m/s 745 mmHg 92%
07:00 +1°C° 0.2 mm 5 m/s 745 mmHg 90%
08:00 +2°C° 0.2 mm 5 m/s 746 mmHg 87%
09:00 +3°C° 0 mm 5 m/s 747 mmHg 78%
10:00 +5°C° 0 mm 6 m/s 747 mmHg 70%
11:00 +8°C° 0 mm 6 m/s 748 mmHg 61%
12:00 +9°C° 0 mm 6 m/s 748 mmHg 55%
13:00 +10°C° 0 mm 6 m/s 749 mmHg 50%
14:00 +11°C° 0 mm 6 m/s 749 mmHg 44%
15:00 +12°C° 0 mm 5 m/s 750 mmHg 46%
16:00 +10°C° 0 mm 5 m/s 750 mmHg 48%
17:00 +11°C° 0 mm 4 m/s 751 mmHg 50%
18:00 +8°C° 0 mm 4 m/s 752 mmHg 58%
19:00 +7°C° 0 mm 3 m/s 752 mmHg 65%
20:00 +5°C° 0 mm 2 m/s 753 mmHg 73%
21:00 +5°C° 0 mm 2 m/s 754 mmHg 74%
22:00 +4°C° 0 mm 2 m/s 755 mmHg 76%
23:00 +3°C° 0 mm 2 m/s 755 mmHg 77%

Mâine, 10 Mai, Luni

Timp Temperatura Precipitaţii Vânt Presiune Umiditate
00:00 +3°C° 0 mm 2 m/s 756 mmHg 76%
01:00 +2°C° 0 mm 2 m/s 757 mmHg 75%
02:00 +1°C° 0 mm 2 m/s 758 mmHg 73%
03:00 +2°C° 0 mm 2 m/s 758 mmHg 71%
04:00 +3°C° 0 mm 1 m/s 758 mmHg 69%
05:00 +4°C° 0 mm 1 m/s 759 mmHg 66%
06:00 +6°C° 0 mm 1 m/s 759 mmHg 58%
07:00 +8°C° 0 mm 1 m/s 760 mmHg 50%
08:00 +11°C° 0 mm 1 m/s 760 mmHg 42%
09:00 +12°C° 0 mm 1 m/s 760 mmHg 40%
10:00 +14°C° 0 mm 1 m/s 760 mmHg 37%
11:00 +15°C° 0 mm 1 m/s 760 mmHg 34%
12:00 +15°C° 0 mm 1 m/s 760 mmHg 34%
13:00 +16°C° 0 mm 1 m/s 760 mmHg 33%
14:00 +16°C° 0 mm 1 m/s 760 mmHg 33%
15:00 +16°C° 0 mm 1 m/s 760 mmHg 37%
16:00 +16°C° 0 mm 1 m/s 760 mmHg 40%
17:00 +15°C° 0 mm 1 m/s 760 mmHg 44%
18:00 +13°C° 0 mm 1 m/s 760 mmHg 50%
19:00 +11°C° 0 mm 1 m/s 760 mmHg 56%
20:00 +9°C° 0 mm 1 m/s 761 mmHg 62%
21:00 +9°C° 0 mm 1 m/s 761 mmHg 64%
22:00 +8°C° 0 mm 1 m/s 761 mmHg 66%
23:00 +8°C° 0 mm 1 m/s 761 mmHg 67%

Poimâine, 11 Mai, Marţi

Timp Temperatura Precipitaţii Vânt Presiune Umiditate
00:00 +7°C° 0 mm 1 m/s 761 mmHg 69%
01:00 +7°C° 0 mm 1 m/s 762 mmHg 70%
02:00 +6°C° 0 mm 1 m/s 762 mmHg 71%
03:00 +7°C° 0 mm 1 m/s 762 mmHg 71%
04:00 +7°C° 0 mm 1 m/s 762 mmHg 71%
05:00 +8°C° 0 mm 1 m/s 762 mmHg 70%
06:00 +10°C° 0 mm 1 m/s 762 mmHg 64%
07:00 +12°C° 0 mm 2 m/s 762 mmHg 57%
08:00 +14°C° 0 mm 2 m/s 762 mmHg 50%
09:00 +15°C° 0 mm 2 m/s 762 mmHg 47%
10:00 +16°C° 0 mm 2 m/s 762 mmHg 43%
11:00 +18°C° 0 mm 3 m/s 762 mmHg 40%
12:00 +18°C° 0 mm 3 m/s 762 mmHg 40%
13:00 +19°C° 0 mm 3 m/s 762 mmHg 40%
14:00 +19°C° 0 mm 2 m/s 761 mmHg 40%
15:00 +18°C° 0 mm 2 m/s 761 mmHg 45%
16:00 +18°C° 0 mm 2 m/s 761 mmHg 50%
17:00 +17°C° 0 mm 2 m/s 761 mmHg 56%
18:00 +15°C° 0 mm 2 m/s 761 mmHg 63%
19:00 +13°C° 0 mm 2 m/s 761 mmHg 70%
20:00 +10°C° 0 mm 2 m/s 761 mmHg 77%
21:00 +10°C° 0 mm 2 m/s 761 mmHg 80%
22:00 +9°C° 0 mm 2 m/s 761 mmHg 82%
23:00 +8°C° 0 mm 2 m/s 761 mmHg 85%

12 Mai, Miercuri

Timp Temperatura Precipitaţii Vânt Presiune Umiditate
00:00 +8°C° 0 mm 2 m/s 761 mmHg 84%
01:00 +7°C° 0 mm 2 m/s 760 mmHg 84%
02:00 +7°C° 0 mm 2 m/s 760 mmHg 83%
03:00 +7°C° 0 mm 2 m/s 760 mmHg 81%
04:00 +7°C° 0 mm 2 m/s 760 mmHg 79%
05:00 +8°C° 0 mm 2 m/s 760 mmHg 77%
06:00 +10°C° 0 mm 2 m/s 760 mmHg 70%
07:00 +12°C° 0 mm 3 m/s 760 mmHg 62%
08:00 +16°C° 0 mm 3 m/s 760 mmHg 55%
09:00 +17°C° 0 mm 4 m/s 759 mmHg 54%
10:00 +19°C° 0 mm 4 m/s 759 mmHg 53%
11:00 +21°C° 0 mm 4 m/s 759 mmHg 52%
12:00 +21°C° 0 mm 5 m/s 758 mmHg 52%
13:00 +22°C° 0 mm 5 m/s 758 mmHg 52%
14:00 +23°C° 0 mm 5 m/s 758 mmHg 52%
15:00 +22°C° 0.1 mm 4 m/s 758 mmHg 59%
16:00 +20°C° 0.1 mm 4 m/s 758 mmHg 66%
17:00 +19°C° 0.1 mm 3 m/s 758 mmHg 72%
18:00 +18°C° 0 mm 3 m/s 757 mmHg 78%
19:00 +17°C° 0 mm 2 m/s 757 mmHg 84%
20:00 +15°C° 0 mm 2 m/s 757 mmHg 90%
21:00 +15°C° 0 mm 2 m/s 757 mmHg 92%
22:00 +14°C° 0 mm 2 m/s 757 mmHg 93%
23:00 +14°C° 0 mm 2 m/s 757 mmHg 94%

13 Mai, Joi

Timp Temperatura Precipitaţii Vânt Presiune Umiditate
00:00 +14°C° 0 mm 2 m/s 757 mmHg 95%
01:00 +14°C° 0 mm 2 m/s 757 mmHg 95%
02:00 +14°C° 0 mm 2 m/s 756 mmHg 96%
03:00 +13°C° 0 mm 3 m/s 756 mmHg 94%
04:00 +14°C° 0 mm 3 m/s 756 mmHg 93%
05:00 +14°C° 0 mm 3 m/s 756 mmHg 91%
06:00 +16°C° 0 mm 3 m/s 756 mmHg 87%
07:00 +17°C° 0 mm 3 m/s 755 mmHg 83%
08:00 +18°C° 0 mm 4 m/s 755 mmHg 79%
09:00 +19°C° 0 mm 4 m/s 755 mmHg 70%
10:00 +21°C° 0 mm 5 m/s 754 mmHg 61%
11:00 +22°C° 0 mm 6 m/s 754 mmHg 53%
12:00 +22°C° 0 mm 6 m/s 754 mmHg 53%
13:00 +22°C° 0 mm 6 m/s 753 mmHg 54%
14:00 +23°C° 0 mm 5 m/s 753 mmHg 54%
15:00 +21°C° 0.2 mm 5 m/s 753 mmHg 62%
16:00 +19°C° 0.2 mm 5 m/s 753 mmHg 69%
17:00 +17°C° 0.2 mm 4 m/s 753 mmHg 76%
18:00 +15°C° 0 mm 4 m/s 753 mmHg 82%
19:00 +14°C° 0 mm 3 m/s 753 mmHg 88%
20:00 +14°C° 0 mm 2 m/s 753 mmHg 94%
21:00 +13°C° 0 mm 2 m/s 753 mmHg 95%
22:00 +13°C° 0 mm 2 m/s 753 mmHg 96%
23:00 +13°C° 0 mm 2 m/s 753 mmHg 98%

14 Mai, Vineri

Timp Temperatura Precipitaţii Vânt Presiune Umiditate
00:00 +13°C° 0 mm 2 m/s 753 mmHg 98%
01:00 +12°C° 0 mm 2 m/s 753 mmHg 98%
02:00 +12°C° 0 mm 2 m/s 753 mmHg 98%
03:00 +13°C° 0 mm 2 m/s 753 mmHg 97%
04:00 +13°C° 0 mm 2 m/s 752 mmHg 96%
05:00 +13°C° 0 mm 2 m/s 752 mmHg 95%
06:00 +14°C° 0 mm 3 m/s 752 mmHg 88%
07:00 +17°C° 0 mm 3 m/s 751 mmHg 81%
08:00 +19°C° 0 mm 4 m/s 751 mmHg 74%
09:00 +20°C° 0.4 mm 4 m/s 751 mmHg 71%
10:00 +21°C° 0.4 mm 4 m/s 750 mmHg 69%
11:00 +22°C° 0.4 mm 5 m/s 750 mmHg 66%
12:00 +22°C° 0.5 mm 4 m/s 750 mmHg 66%
13:00 +22°C° 0.5 mm 3 m/s 749 mmHg 67%
14:00 +23°C° 0.5 mm 2 m/s 749 mmHg 67%
15:00 +21°C° 1.4 mm 3 m/s 748 mmHg 71%
16:00 +20°C° 1.4 mm 4 m/s 748 mmHg 76%
17:00 +19°C° 1.4 mm 5 m/s 747 mmHg 80%
18:00 +18°C° 0.9 mm 4 m/s 747 mmHg 85%
19:00 +17°C° 0.9 mm 3 m/s 747 mmHg 90%
20:00 +16°C° 0.9 mm 2 m/s 747 mmHg 95%
21:00 +15°C° 0 mm 2 m/s 748 mmHg 96%
22:00 +15°C° 0 mm 2 m/s 748 mmHg 96%
23:00 +14°C° 0 mm 2 m/s 748 mmHg 97%
Arată mai mult

Formular de consimțământ

Meteoprog și furnizorii noștri de servicii pot stoca și accesa date personale, precum cookies, identificatori de dispozitiv sau alte tehnologii similare pe dispozitivul dumneavoastră și procesa astfel de date pentru a personaliza conținutul și reclamele, dar și pentru a oferi caracteristici de social media și pentru a analiza traficul.

  • Stocarea și/sau accesarea informațiilor pe dispozitivul dumneavoastră

    Cookies, identificatori de dispozitiv sau alte informații pot fi stocate sau accesate pe dispozitiv în scopurile indicate mai sus.

  • Reclame și conținut personalizat, evaluarea reclamelor și a conținutului, informații despre audiențe și dezvoltarea produselor

    Reclamele și conținutul pot fi personalizate pe baza unui profil. Pot fi adăugate date suplimentare pentru a personaliza mai bine reclamele și conținutul. Performanța reclamelor și conținutului poate fi măsurată. Pot fi obținute informații despre utilizatorii care au văzut reclamele și conținutul. Aceste date pot fi utilizate pentru a dezvolta sau îmbunătăți experiența utilizatorilor, sistemele și software-ul.

Dând clic pe ‘Sunt de acord’, permiteți utilizarea cookie-urilor menționate, a identificatorilor de dispozitiv, balizelor web sau altor tehnologii similare. Setările pot fi modificate din browser-ul dispozitivului dumneavoastră.

În anumite scopuri, interesele legitime pot prima asupra consimțământului. Puteți citi mai multe informații în acest sens în Politica privind Confidențialitatea Datelor și Cookie.